Regional Weather Roundup
Issued by NWS Sterling, VA

Home | Current Version | Previous Version | Text Only | Print | Product List | Glossary Off
Versions: 1 2 3 4 5 6 7 8 9 10 11 12 13 14 15 16 17 18 19 20 21 22 23 24 25 26 27 28 29 30 31 32 33 34 35 36 37 38 39 40 41 42 43 44 45 46 47 48 49 50

000
ASUS41 KLWX 140710
RWRLWX

REGIONAL WEATHER ROUNDUP
NATIONAL WEATHER SERVICE BALTIMORE MD/WASHINGTON DC
300 AM EDT SUN SEP 14 2014

Note: "FAIR" indicates few or no clouds below 12,000 feet
with no significant weather and/or obstructions to visibility.
 TC=TEMPERATURE CELSIUS

 * =Non NWS site. Station does not report precipitation (e.g. rain,
    snow, etc.), thunder, or fog.

DCZ001-MDZ009-015-VAZ040>042-051-053>054-140800-
WASHINGTON METRO

CITY           SKY/WX    TMP DP  RH WIND       PRES   REMARKS
WASHINGTON NAT CLEAR     60  50  69 NW9       30.24S
DULLES         CLEAR     51  48  89 CALM      30.25S
ANDREWS AFB    CLEAR     57  51  82 N8        30.23S
QUANTICO       CLEAR     58  51  78 N16G25    30.24F
COLLEGE PARK*  CLEAR     55  52  88 CALM      30.24R
LEESBURG*      CLEAR     54  52  94 NW6       30.27R
MANASSAS*      CLEAR     55  52  88 N6        30.25S
GAITHERSBURG*  CLEAR     50  46  87 CALM      30.29R

$$

MDZ006>007-011-014-140800-
BALTIMORE METRO

CITY           SKY/WX    TMP DP  RH WIND       PRES   REMARKS
BWI AIRPORT    CLEAR     55  49  80 CALM      30.23S
MD SCIENCE CTR   N/A     60  48  64 MISG      30.23S
MARTIN STATE   CLEAR     55  52  88 NW5       30.24S
ANNAPOLIS      CLEAR     62  53  72 N9        30.22S
FORT MEADE*    CLEAR     52  50  93 CALM      30.26R

$$

MDZ012-015-019>023-140800-
MARYLAND EASTERN SHORE

CITY           SKY/WX    TMP DP  RH WIND       PRES   REMARKS
OCEAN CITY     CLEAR     61  57  87 N8        30.18R
SALISBURY      CLEAR     62  57  83 N9        30.19R
BAY BRIDGE AP*   N/A     63  50  63 N12G20    30.22S
CAMBRIDGE*     CLEAR     63  54  72 N8        30.20R
EASTON*        CLEAR     60  59  95 CALM      30.24S

$$

MDZ017>025-140800-
SOUTHERN MARYLAND

CITY           SKY/WX    TMP DP  RH WIND       PRES   REMARKS
PATUXENT RIVER CLEAR     62  52  69 N13       30.20S
ST INIGOES     CLEAR     62  54  74 CALM      30.20S
LEONARDTOWN*   CLEAR     59  52  77 CALM      30.23R

$$

MDZ003>005-140800-
NORTH CENTRAL MARYLAND

CITY           SKY/WX    TMP DP  RH WIND       PRES   REMARKS
FREDERICK*     PTCLDY    52  50  93 CALM      30.28R FOG
HAGERSTOWN APT CLEAR     51  44  77 NW3       30.26S
WESTMINSTER*   CLEAR     52  48  87 CALM      30.25R

$$

MDZ501>502-140800-
WESTERN MARYLAND

CITY           SKY/WX    TMP DP  RH WIND       PRES   REMARKS
OAKLAND*       CLEAR     41 N/A N/A N3        30.30S
CUMBERLAND*    CLEAR     46  45  93 CALM      30.33S

$$

VAZ025>031-140800-
SHENANDOAH VALLEY

CITY           SKY/WX    TMP DP  RH WIND       PRES   REMARKS
WINCHESTER*    CLEAR     50  45  81 NW6       30.28R
STAUNTON*      CLEAR     48  46  92 N5        30.28F

$$

WVZ021-048>050-054>055-140800-
EASTERN WEST VIRGINIA PANHANDLE

CITY           SKY/WX    TMP DP  RH WIND       PRES   REMARKS
MARTINSBURG    CLEAR     52  43  71 NW3       30.28R
PETERSBURG*    CLEAR     47  46  95 CALM      30.31S

$$

VAZ036>039-050-140800-
CENTRAL FOOTHILLS

CITY           SKY/WX    TMP DP  RH WIND       PRES   REMARKS
CHARLOTTESVILL CLEAR     54  50  86 N5        30.24S
ORANGE*        CLEAR     54  50  87 NW5       30.26S

$$

VAZ055>057-140800-
NORTH AND CENTRAL PIEDMONT

CITY           SKY/WX    TMP DP  RH WIND       PRES   REMARKS
FREDERICKSBRG* CLEAR     59  54  82 N7        30.23R
STAFFORD*      CLEAR     55  55 100 N9        30.28S

$$

NCZ024-NYZ072-PAZ021-071-VAZ022-071-140800-
OTHER REGIONAL OBSERVATIONS

CITY           SKY/WX    TMP DP  RH WIND       PRES   REMARKS
NEW YORK CITY  CLEAR     57  46  66 VRB6      30.21R
PHILADELPHIA   CLEAR     58  53  84 CALM      30.21R
PITTSBURGH     CLEAR     46  44  93 NW3       30.32S
ROANOKE        CLOUDY    59  54  83 CALM      30.27S
RICHMOND       PTCLDY    61  54  77 N12       30.21S
RALEIGH        MOCLDY    64  53  67 NE6       30.21R

$$

ANZ530>537-140800-
MARINE OBSERVATIONS

STATION/POSITION TIME  TEMP    WIND        PRES
                       AIR SEA DIR/SP/G
                 (UTC) (F)     (DEG/KT/KT) (MB)
THOMAS PT LIGHT  0700   62 75  340/ 13/ 15 1024.0R
BALT KEY BRIDGE  0700   62     320/ 12/ 14 1023.3F
COVE POINT       0700   66      10/ 16/ 23 1022.5S
LEWISETTA        0700   66 74  360/ 14/ 20 1022.4R
SOLOMONS ISLAND  0600      77                N/A
PINEY POINT      0700           10/ 12/ 13   N/A

$$



USA.gov is the U.S. government's official web portal to all federal, state and local government web resources and services.